Wind_Speed
20 21 21 21 21 21 22 23 23 22 22 21 22 22 22 22 22 22 22 22 22 22 23 23 24 24 24 24 24 25 25 25 25 25 26 26 26 26 26 26 27 27 27
21 21 21 22 22 22 23 24 23 23 23 23 23 22 22 22 23 23 24 24 24 23 24 24 25 25 25 25 26 26 27 27 27 27 27 28 27 28 27 28 28 28 28
22 22 22 23 23 23 24 24 24 24 24 24 23 23 24 24 24 24 24 24 24 25 25 25 26 26 27 27 27 27 28 28 29 29 29 29 29 29 29 29 29 29 29
22 23 24 24 24 25 25 25 25 25 24 24 24 24 25 25 24 25 25 25 25 25 25 25 25 26 28 28 28 28 29 29 30 30 30 30 31 31 31 31 30 31 31
23 23 24 24 25 24 25 25 25 25 25 25 25 25 25 24 24 24 25 25 25 26 26 26 26 27 27 28 29 29 29 30 30 30 31 31 32 32 33 33 33 32 32
22 23 23 23 24 24 24 25 25 25 25 26 25 24 24 24 24 24 25 26 27 27 27 27 28 28 28 28 29 30 30 31 31 31 31 32 32 33 33 34 34 34 34
22 23 22 21 22 22 24 24 24 24 24 24 23 23 23 24 25 25 26 27 27 28 28 28 28 28 29 29 30 30 31 31 32 32 32 33 33 34 34 34 35 35 35
21 22 22 21 22 23 23 24 23 23 24 24 23 23 24 24 25 26 26 27 27 28 29 29 29 29 30 30 30 31 31 32 33 33 33 34 34 35 35 35 36 37 37
20 21 20 21 22 22 22 21 21 21 22 23 23 23 24 24 25 26 26 26 27 27 29 30 30 30 30 31 31 31 32 32 33 33 34 34 35 36 36 36 36 37 37
20 21 21 21 21 21 21 22 22 21 21 22 23 24 24 24 25 26 27 28 28 28 29 30 31 32 32 32 33 33 33 33 34 33 34 35 35 36 37 37 38 38 38
20 20 21 21 21 22 22 21 21 21 21 22 23 24 25 26 26 27 27 28 29 29 30 31 32 33 33 34 34 35 35 34 35 35 35 36 36 37 38 38 39 39 39
20 20 21 21 22 21 21 20 20 21 21 22 24 25 26 26 27 28 28 29 30 30 31 32 33 34 35 35 35 35 36 35 35 36 36 36 37 37 38 38 40 40 40
20 20 20 20 20 21 21 20 20 21 23 24 25 25 26 27 28 29 29 29 30 31 33 34 35 35 36 36 36 36 36 36 36 37 38 38 38 37 37 39 39 41 41
19 19 19 19 19 20 20 19 20 21 23 24 25 26 27 28 28 29 30 30 31 32 34 34 34 35 35 35 36 36 37 37 37 38 38 39 39 38 38 38 39 40 41
17 18 18 18 18 20 21 21 20 22 23 24 26 27 28 29 29 30 31 32 32 33 33 33 34 35 35 36 36 37 37 37 38 38 39 40 40 39 38 38 40 41 41
17 16 17 17 18 20 21 21 21 22 23 25 27 27 28 29 30 31 32 33 33 34 34 34 34 34 34 36 36 37 37 37 38 38 39 39 40 40 40 40 40 41 42
16 16 17 17 19 20 21 22 22 23 24 26 27 28 29 30 31 31 33 33 33 33 33 33 34 33 33 34 35 34 34 35 36 37 38 39 40 41 41 41 41 42 42
16 17 18 18 19 20 21 22 23 24 26 27 28 29 29 30 30 31 31 32 32 33 32 32 32 32 32 32 32 33 33 34 35 35 36 38 39 40 40 40 41 42 42
17 18 19 19 20 21 22 23 24 25 27 28 29 29 28 29 30 31 31 31 32 32 32 32 32 31 32 32 33 33 33 33 34 34 34 35 37 38 39 40 40 41 42
17 18 18 19 20 21 23 23 24 26 27 28 28 28 28 29 30 30 31 30 30 31 31 31 31 30 31 32 33 33 33 33 33 34 34 34 35 36 37 39 39 40 41
17 18 19 19 20 22 23 24 24 26 27 28 28 27 28 29 29 30 30 29 29 29 29 30 30 30 30 31 31 32 31 32 32 34 34 34 34 34 36 36 37 38 39
17 17 18 19 20 21 23 24 25 26 27 27 27 28 28 29 29 29 29 28 28 27 28 28 28 28 28 29 29 29 30 30 30 31 32 33 34 35 35 36 36 36 37
17 18 18 19 20 21 23 25 26 26 26 27 27 28 28 29 28 27 27 26 26 26 26 26 26 26 26 25 26 27 27 27 27 29 30 31 33 34 34 35 36 37 37
17 18 19 19 20 22 23 24 26 26 26 27 27 27 27 26 26 26 26 26 26 26 26 26 25 24 24 23 24 23 23 24 24 26 27 28 29 31 32 34 35 37 38
17 18 19 20 22 23 25 25 27 27 26 26 26 26 25 26 25 25 25 25 25 25 25 25 24 24 23 22 21 21 21 22 22 23 24 25 26 28 30 32 33 35 36
17 18 20 22 23 24 25 26 27 26 26 25 26 26 25 25 25 25 25 24 24 24 24 23 23 23 22 21 19 18 18 18 18 20 22 24 25 26 27 29 32 33 34
Wind_Direction
280 281 282 283 282 281 281 281 282 283 284 282 279 277 276 274 273 273 273 272 272 273 271 269 267 265 263 262 261 259 257 256 254 253 251 250 249 248 246 243 242 240 240
280 281 282 281 281 280 281 281 281 282 282 282 280 277 275 273 272 272 273 273 272 272 271 269 266 264 264 262 261 260 258 258 256 254 252 251 250 249 247 246 243 242 241
280 281 281 281 281 280 280 280 280 280 281 281 279 277 275 274 272 272 273 273 273 273 271 269 267 265 264 262 261 261 259 258 256 254 253 252 250 249 248 247 245 244 243
282 282 282 282 283 282 280 279 280 281 280 280 277 275 274 273 272 272 273 274 275 274 272 271 268 266 264 262 262 261 259 258 256 254 253 252 251 250 248 247 246 245 244
282 284 286 284 284 284 283 281 281 281 280 279 278 276 274 274 273 273 274 275 274 273 272 271 269 268 266 264 263 261 259 258 256 254 253 252 251 250 249 248 247 245 244
283 284 287 286 285 285 285 283 282 281 280 279 279 278 277 276 275 274 274 274 273 272 272 271 270 269 269 267 265 263 261 259 258 255 254 253 251 250 249 248 247 245 244
286 287 286 287 286 288 285 282 282 281 282 281 281 281 280 278 277 277 276 275 274 272 271 270 270 270 271 270 268 265 262 260 258 256 254 253 251 250 249 248 247 245 243
288 289 285 286 288 289 289 285 283 281 282 282 283 281 279 279 278 278 277 276 274 272 271 271 270 271 271 270 268 265 263 261 259 256 254 253 251 249 249 248 246 245 243
290 291 288 290 290 291 292 289 287 285 284 283 283 283 282 281 282 282 280 278 276 275 273 272 272 272 271 270 268 265 262 261 260 259 256 253 251 249 249 248 246 244 243
290 290 289 293 292 290 290 289 287 286 287 287 288 288 286 284 285 283 281 280 279 278 276 274 273 272 271 270 268 265 263 260 259 259 258 255 252 249 249 247 245 243 243
292 292 292 291 293 293 294 291 289 288 289 290 291 291 289 288 287 285 283 282 280 279 277 275 274 273 272 270 268 266 264 262 260 258 258 257 254 250 248 247 245 243 242
291 291 292 291 292 294 295 294 294 292 292 292 292 291 291 290 289 288 287 285 282 280 279 278 277 275 274 272 269 266 264 262 261 259 257 256 254 252 249 247 246 244 243
291 291 291 294 295 296 299 297 294 295 295 294 293 293 292 292 291 290 289 287 285 283 282 281 279 277 274 272 270 266 264 264 262 260 257 256 255 253 250 247 247 245 243
292 293 293 295 297 299 301 301 299 298 296 295 294 294 294 293 293 292 290 288 286 286 284 282 279 277 274 272 271 267 264 263 263 262 259 257 255 253 251 248 247 246 244
294 296 300 299 299 302 303 302 301 300 300 299 298 297 296 296 295 293 292 291 290 288 286 283 281 279 276 272 270 267 265 263 262 261 259 256 255 253 251 248 247 247 246
301 302 302 303 302 302 304 305 302 301 302 303 301 301 300 298 297 295 295 294 293 291 289 286 283 279 276 273 271 269 266 263 262 261 258 255 253 252 250 248 247 246 245
307 308 307 307 308 308 307 306 304 304 307 307 306 304 303 302 301 298 296 295 294 292 290 288 286 283 279 274 272 270 267 264 262 260 257 254 252 251 249 249 248 246 245
310 312 310 311 312 311 309 309 309 310 310 310 309 308 307 306 304 303 300 298 297 294 291 290 288 284 279 275 272 270 267 265 262 260 257 255 254 252 250 248 247 246 245
313 312 309 310 312 313 312 313 314 313 314 313 312 311 310 309 308 307 304 300 298 295 293 292 289 286 281 277 274 273 269 265 262 259 258 256 254 251 250 248 247 246 245
316 315 313 313 314 315 316 316 316 315 316 316 315 314 313 312 311 310 308 305 301 298 295 294 291 288 283 279 276 275 272 267 263 259 258 256 254 251 249 248 248 246 244
321 320 319 319 320 319 320 320 319 319 318 317 316 314 314 314 313 313 311 309 306 302 300 298 295 291 286 282 278 275 272 268 265 263 261 257 253 250 249 249 248 246 244
326 325 326 325 324 323 323 323 322 321 320 318 317 317 316 314 314 314 314 313 311 307 304 302 299 295 289 284 281 277 272 268 265 263 261 257 253 249 248 248 247 247 246
331 331 330 329 329 328 327 325 324 323 323 322 320 319 317 316 316 316 318 317 315 313 310 308 304 300 295 289 284 279 275 272 268 264 261 259 255 250 248 247 246 246 247
336 336 335 333 332 332 331 330 327 325 325 324 324 322 320 319 319 320 321 320 317 315 313 312 310 307 302 296 290 284 278 273 270 265 261 258 255 251 249 248 248 249 248
337 338 339 336 334 333 333 333 331 331 330 329 328 326 323 322 322 323 322 321 321 319 317 315 313 311 308 303 296 288 282 276 272 269 262 258 255 253 252 252 250 249 248
337 338 339 338 337 337 338 337 336 336 335 333 331 330 327 326 325 324 323 323 324 323 321 319 317 315 313 309 304 296 291 282 274 270 267 261 258 255 253 253 251 250 249
Height
5845 5844 5843 5842 5840 5839 5837 5836 5835 5834 5832 5831 5830 5829 5828 5827 5826 5825 5825 5824 5823 5822 5822 5821 5821 5821 5820 5821 5821 5821 5822 5823 5823 5824 5825 5826 5827 5829 5830 5832 5834 5836 5838
5840 5838 5837 5836 5835 5833 5832 5831 5829 5828 5827 5826 5824 5823 5822 5821 5820 5820 5819 5818 5817 5816 5816 5815 5815 5815 5814 5814 5815 5815 5816 5816 5817 5818 5819 5820 5821 5823 5824 5826 5828 5830 5832
5834 5833 5831 5830 5828 5827 5826 5824 5823 5822 5821 5820 5818 5817 5816 5815 5814 5814 5813 5812 5811 5810 5809 5809 5808 5808 5808 5808 5808 5808 5808 5809 5810 5811 5812 5813 5815 5816 5818 5819 5822 5824 5826
5828 5827 5825 5823 5822 5820 5819 5818 5816 5815 5814 5813 5812 5811 5810 5809 5808 5807 5807 5806 5805 5804 5803 5802 5801 5801 5801 5801 5801 5801 5801 5802 5803 5804 5805 5806 5807 5809 5811 5813 5815 5817 5819
5823 5821 5820 5817 5816 5814 5812 5811 5810 5809 5808 5807 5806 5805 5804 5803 5802 5801 5800 5799 5798 5797 5796 5795 5795 5794 5794 5794 5793 5793 5794 5794 5794 5796 5797 5798 5800 5801 5803 5805 5807 5810 5812
5817 5816 5814 5812 5810 5808 5806 5804 5803 5802 5801 5800 5799 5798 5797 5797 5795 5794 5793 5792 5791 5790 5789 5788 5787 5787 5786 5786 5785 5785 5785 5786 5786 5788 5789 5790 5792 5793 5795 5797 5799 5802 5804
5812 5810 5808 5807 5805 5802 5800 5798 5797 5796 5795 5794 5793 5792 5791 5790 5789 5788 5787 5785 5784 5783 5782 5781 5780 5779 5779 5778 5777 5777 5777 5777 5778 5779 5780 5781 5783 5785 5787 5789 5791 5793 5796
5807 5805 5803 5801 5799 5796 5794 5792 5791 5790 5789 5788 5787 5785 5784 5784 5782 5781 5780 5778 5777 5775 5774 5773 5772 5771 5770 5770 5769 5768 5768 5769 5769 5769 5771 5772 5773 5775 5777 5780 5782 5784 5787
5801 5799 5797 5795 5793 5790 5788 5786 5785 5784 5782 5781 5780 5779 5777 5776 5775 5774 5772 5771 5769 5768 5766 5765 5764 5763 5761 5761 5760 5759 5759 5759 5760 5760 5761 5762 5763 5765 5767 5770 5772 5775 5778
5796 5794 5791 5790 5787 5785 5782 5781 5779 5778 5776 5775 5773 5772 5770 5769 5768 5767 5765 5763 5761 5759 5757 5756 5755 5753 5752 5751 5750 5750 5749 5749 5750 5750 5751 5752 5754 5755 5757 5759 5762 5765 5768
5790 5788 5786 5784 5781 5779 5776 5774 5773 5771 5770 5768 5766 5765 5763 5761 5759 5758 5757 5755 5753 5750 5748 5747 5745 5744 5742 5741 5740 5739 5739 5739 5739 5740 5741 5742 5743 5745 5747 5749 5751 5754 5757
5785 5783 5780 5778 5776 5773 5771 5769 5767 5765 5764 5762 5760 5758 5755 5753 5751 5749 5748 5746 5744 5742 5739 5737 5735 5733 5731 5730 5729 5728 5728 5728 5728 5729 5730 5731 5733 5734 5736 5738 5741 5744 5746
5779 5777 5774 5772 5770 5768 5766 5763 5762 5760 5757 5755 5752 5750 5747 5745 5742 5740 5738 5736 5734 5732 5730 5727 5724 5722 5720 5718 5717 5716 5716 5716 5717 5718 5719 5720 5721 5723 5725 5727 5730 5733 5736
5774 5771 5769 5766 5764 5762 5760 5758 5755 5753 5751 5748 5745 5742 5740 5737 5734 5731 5729 5726 5724 5722 5719 5716 5713 5710 5708 5706 5705 5704 5704 5704 5705 5706 5707 5708 5710 5712 5714 5716 5718 5721 5725
5768 5766 5763 5761 5759 5757 5754 5752 5750 5747 5744 5741 5738 5735 5731 5728 5725 5721 5718 5716 5714 5711 5709 5705 5702 5699 5696 5694 5693 5692 5692 5692 5693 5694 5694 5696 5698 5700 5702 5704 5706 5710 5713
5762 5760 5758 5756 5754 5751 5749 5746 5743 5740 5737 5734 5730 5726 5723 5720 5716 5712 5709 5705 5702 5699 5696 5694 5690 5687 5684 5682 5681 5680 5679 5679 5680 5681 5682 5684 5685 5688 5690 5692 5695 5699 5702
5757 5755 5753 5751 5749 5746 5743 5740 5737 5734 5730 5727 5723 5719 5715 5711 5707 5703 5699 5695 5691 5687 5684 5682 5678 5675 5672 5670 5669 5668 5667 5667 5668 5668 5669 5671 5673 5675 5678 5680 5683 5687 5691
5753 5751 5748 5746 5744 5741 5738 5735 5731 5728 5724 5720 5715 5711 5707 5702 5698 5694 5689 5685 5681 5676 5673 5670 5667 5664 5661 5659 5657 5656 5656 5656 5656 5656 5657 5658 5660 5662 5665 5668 5671 5674 5678
5749 5746 5744 5742 5739 5736 5732 5729 5725 5721 5717 5713 5708 5703 5699 5694 5689 5684 5680 5675 5671 5666 5662 5659 5656 5653 5650 5648 5646 5645 5644 5644 5644 5644 5645 5647 5648 5650 5653 5656 5659 5662 5666
5744 5742 5739 5737 5734 5730 5727 5723 5719 5715 5710 5705 5701 5696 5691 5686 5681 5676 5671 5666 5662 5657 5653 5649 5645 5642 5639 5637 5635 5634 5633 5632 5632 5633 5634 5635 5637 5639 5641 5644 5647 5650 5654
5741 5738 5735 5732 5729 5725 5721 5717 5713 5709 5704 5699 5693 5688 5683 5679 5673 5668 5663 5658 5653 5648 5644 5640 5636 5632 5629 5626 5625 5623 5623 5622 5622 5621 5623 5624 5626 5628 5630 5633 5635 5638 5642
5738 5735 5731 5728 5725 5721 5717 5712 5708 5703 5698 5692 5687 5681 5677 5671 5666 5660 5655 5650 5645 5640 5636 5631 5627 5623 5620 5617 5615 5613 5612 5612 5612 5612 5612 5614 5615 5617 5619 5622 5625 5628 5631
5735 5732 5728 5725 5721 5717 5712 5707 5702 5697 5692 5686 5681 5675 5670 5665 5659 5654 5648 5643 5638 5633 5628 5624 5619 5615 5612 5609 5606 5604 5602 5602 5602 5602 5602 5604 5605 5607 5609 5611 5614 5617 5620
5732 5729 5725 5722 5718 5713 5708 5703 5697 5692 5686 5680 5674 5669 5664 5658 5653 5647 5642 5637 5631 5627 5622 5617 5613 5608 5604 5601 5598 5596 5594 5593 5593 5593 5593 5595 5595 5597 5599 5601 5604 5606 5609
5731 5727 5723 5719 5715 5710 5705 5699 5693 5686 5681 5675 5669 5663 5658 5652 5647 5642 5636 5631 5626 5620 5615 5610 5606 5602 5597 5594 5590 5588 5586 5585 5585 5585 5585 5586 5587 5588 5590 5591 5593 5596 5598
5729 5725 5721 5716 5712 5706 5701 5695 5689 5682 5677 5671 5665 5659 5653 5647 5641 5636 5631 5626 5620 5615 5610 5605 5601 5596 5592 5588 5584 5582 5580 5579 5578 5578 5577 5578 5578 5579 5581 5582 5583 5585 5587